• Em Portugal
  • Lista de países
  • Para 7 dias
  • Temperatura da água
  • Mapas de satélite
  • Mapa do tempo
  • Widgets de tempo
  • user-avatar
    Iniciar Sessão

    Previsão horária em Kobdo

    Hoje, 18 Junho, Segunda-feira

    Tempo Temperatura Precipitação Vento Pressão Humidade
    00:00 +14°C° 0 mm 1 m/s 590 mmHg 49%
    01:00 +14°C° 0 mm 1 m/s 590 mmHg 50%
    02:00 +13°C° 0 mm 1 m/s 589 mmHg 51%
    03:00 +13°C° 0 mm 1 m/s 589 mmHg 52%
    04:00 +13°C° 0 mm 1 m/s 589 mmHg 49%
    05:00 +14°C° 0 mm 1 m/s 590 mmHg 47%
    06:00 +14°C° 0 mm 1 m/s 590 mmHg 44%
    07:00 +15°C° 0 mm 1 m/s 590 mmHg 41%
    08:00 +16°C° 0 mm 1 m/s 590 mmHg 38%
    09:00 +17°C° 0 mm 2 m/s 590 mmHg 35%
    10:00 +19°C° 0 mm 2 m/s 590 mmHg 33%
    11:00 +20°C° 0 mm 3 m/s 590 mmHg 30%
    12:00 +21°C° 0 mm 3 m/s 590 mmHg 28%
    13:00 +21°C° 0 mm 4 m/s 590 mmHg 29%
    14:00 +21°C° 0 mm 4 m/s 590 mmHg 29%
    15:00 +21°C° 0 mm 4 m/s 590 mmHg 30%
    16:00 +21°C° 0,1 mm 4 m/s 590 mmHg 31%
    17:00 +21°C° 0,1 mm 3 m/s 590 mmHg 33%
    18:00 +20°C° 0,1 mm 2 m/s 590 mmHg 35%
    19:00 +20°C° 0 mm 2 m/s 589 mmHg 37%
    20:00 +19°C° 0 mm 2 m/s 589 mmHg 40%
    21:00 +19°C° 0 mm 1 m/s 589 mmHg 43%
    22:00 +18°C° 0,1 mm 1 m/s 589 mmHg 45%
    23:00 +18°C° 0,1 mm 1 m/s 589 mmHg 47%

    Amanhã, 19 Junho, Terça-feira

    Tempo Temperatura Precipitação Vento Pressão Humidade
    00:00 +16°C° 0,1 mm 1 m/s 589 mmHg 49%
    01:00 +16°C° 0,1 mm 1 m/s 588 mmHg 52%
    02:00 +16°C° 0,1 mm 2 m/s 588 mmHg 55%
    03:00 +15°C° 0,1 mm 2 m/s 588 mmHg 58%
    04:00 +15°C° 0 mm 2 m/s 588 mmHg 58%
    05:00 +15°C° 0 mm 2 m/s 588 mmHg 58%
    06:00 +16°C° 0 mm 2 m/s 588 mmHg 59%
    07:00 +16°C° 0,4 mm 2 m/s 589 mmHg 58%
    08:00 +16°C° 0,4 mm 2 m/s 589 mmHg 58%
    09:00 +16°C° 0,4 mm 2 m/s 589 mmHg 58%
    10:00 +17°C° 0,4 mm 2 m/s 589 mmHg 57%
    11:00 +17°C° 0,4 mm 2 m/s 589 mmHg 56%
    12:00 +17°C° 0,4 mm 2 m/s 589 mmHg 55%
    13:00 +18°C° 0,5 mm 2 m/s 589 mmHg 53%
    14:00 +18°C° 0,5 mm 2 m/s 590 mmHg 51%
    15:00 +19°C° 0,5 mm 2 m/s 590 mmHg 49%
    16:00 +19°C° 0,5 mm 2 m/s 590 mmHg 49%
    17:00 +19°C° 0,5 mm 2 m/s 590 mmHg 48%
    18:00 +19°C° 0,5 mm 2 m/s 590 mmHg 48%
    19:00 +18°C° 0,2 mm 2 m/s 590 mmHg 52%
    20:00 +18°C° 0,2 mm 1 m/s 590 mmHg 56%
    21:00 +16°C° 0,2 mm 1 m/s 590 mmHg 60%
    22:00 +16°C° 0 mm 1 m/s 590 mmHg 61%
    23:00 +15°C° 0 mm 1 m/s 590 mmHg 62%

    Depois de amanhã, 20 Junho, Quarta-feira

    Tempo Temperatura Precipitação Vento Pressão Humidade
    00:00 +14°C° 0 mm 1 m/s 589 mmHg 63%
    01:00 +14°C° 0 mm 1 m/s 589 mmHg 64%
    02:00 +13°C° 0 mm 1 m/s 589 mmHg 65%
    03:00 +13°C° 0 mm 1 m/s 589 mmHg 66%
    04:00 +14°C° 0 mm 1 m/s 590 mmHg 62%
    05:00 +14°C° 0 mm 1 m/s 590 mmHg 58%
    06:00 +15°C° 0 mm 1 m/s 591 mmHg 54%
    07:00 +16°C° 0 mm 1 m/s 591 mmHg 49%
    08:00 +18°C° 0 mm 1 m/s 591 mmHg 45%
    09:00 +19°C° 0 mm 1 m/s 592 mmHg 40%
    10:00 +20°C° 0,1 mm 1 m/s 592 mmHg 38%
    11:00 +20°C° 0,1 mm 2 m/s 592 mmHg 36%
    12:00 +21°C° 0,1 mm 2 m/s 592 mmHg 34%
    13:00 +21°C° 0,1 mm 2 m/s 592 mmHg 34%
    14:00 +21°C° 0,1 mm 3 m/s 591 mmHg 34%
    15:00 +21°C° 0,1 mm 3 m/s 591 mmHg 34%
    16:00 +21°C° 0,3 mm 3 m/s 591 mmHg 35%
    17:00 +20°C° 0,3 mm 3 m/s 591 mmHg 37%
    18:00 +20°C° 0,3 mm 2 m/s 591 mmHg 38%
    19:00 +19°C° 0,1 mm 2 m/s 591 mmHg 41%
    20:00 +19°C° 0,1 mm 1 m/s 590 mmHg 45%
    21:00 +18°C° 0,1 mm 1 m/s 590 mmHg 48%
    22:00 +18°C° 0 mm 1 m/s 590 mmHg 49%
    23:00 +16°C° 0 mm 1 m/s 590 mmHg 50%

    21 Junho, Quinta-feira

    Tempo Temperatura Precipitação Vento Pressão Humidade
    00:00 +15°C° 0 mm 1 m/s 590 mmHg 51%
    01:00 +15°C° 0 mm 1 m/s 589 mmHg 51%
    02:00 +14°C° 0 mm 1 m/s 589 mmHg 51%
    03:00 +14°C° 0 mm 1 m/s 589 mmHg 51%
    04:00 +14°C° 0 mm 2 m/s 589 mmHg 49%
    05:00 +15°C° 0 mm 2 m/s 590 mmHg 47%
    06:00 +16°C° 0 mm 2 m/s 590 mmHg 45%
    07:00 +17°C° 0 mm 2 m/s 590 mmHg 41%
    08:00 +18°C° 0 mm 2 m/s 591 mmHg 36%
    09:00 +19°C° 0 mm 2 m/s 591 mmHg 32%
    10:00 +19°C° 0,1 mm 2 m/s 591 mmHg 31%
    11:00 +20°C° 0,1 mm 3 m/s 591 mmHg 31%
    12:00 +21°C° 0,1 mm 3 m/s 592 mmHg 30%
    13:00 +21°C° 0,1 mm 4 m/s 591 mmHg 30%
    14:00 +21°C° 0,1 mm 4 m/s 591 mmHg 31%
    15:00 +21°C° 0,1 mm 4 m/s 591 mmHg 31%
    16:00 +20°C° 0,1 mm 4 m/s 591 mmHg 31%
    17:00 +20°C° 0,1 mm 4 m/s 591 mmHg 30%
    18:00 +20°C° 0,1 mm 4 m/s 591 mmHg 30%
    19:00 +19°C° 0 mm 4 m/s 591 mmHg 32%
    20:00 +17°C° 0 mm 3 m/s 590 mmHg 34%
    21:00 +16°C° 0 mm 3 m/s 590 mmHg 36%
    22:00 +14°C° 0 mm 3 m/s 590 mmHg 38%
    23:00 +14°C° 0 mm 3 m/s 590 mmHg 40%

    22 Junho, Sexta-feira

    Tempo Temperatura Precipitação Vento Pressão Humidade
    00:00 +13°C° 0 mm 3 m/s 590 mmHg 41%
    01:00 +12°C° 0 mm 3 m/s 589 mmHg 43%
    02:00 +12°C° 0 mm 3 m/s 589 mmHg 44%
    03:00 +11°C° 0 mm 3 m/s 589 mmHg 45%
    04:00 +13°C° 0 mm 2 m/s 589 mmHg 44%
    05:00 +13°C° 0 mm 2 m/s 590 mmHg 43%
    06:00 +13°C° 0 mm 2 m/s 591 mmHg 41%
    07:00 +14°C° 0 mm 2 m/s 591 mmHg 37%
    08:00 +15°C° 0 mm 1 m/s 591 mmHg 34%
    09:00 +16°C° 0 mm 1 m/s 592 mmHg 30%
    10:00 +18°C° 0 mm 1 m/s 592 mmHg 28%
    11:00 +19°C° 0 mm 1 m/s 592 mmHg 26%
    12:00 +19°C° 0 mm 2 m/s 592 mmHg 24%
    13:00 +19°C° 0 mm 2 m/s 592 mmHg 24%
    14:00 +20°C° 0 mm 2 m/s 592 mmHg 23%
    15:00 +20°C° 0 mm 2 m/s 592 mmHg 22%
    16:00 +20°C° 0 mm 2 m/s 591 mmHg 24%
    17:00 +20°C° 0 mm 2 m/s 591 mmHg 25%
    18:00 +19°C° 0 mm 2 m/s 591 mmHg 27%
    19:00 +18°C° 0,1 mm 2 m/s 591 mmHg 31%
    20:00 +18°C° 0,1 mm 1 m/s 591 mmHg 35%
    21:00 +16°C° 0,1 mm 1 m/s 590 mmHg 40%
    22:00 +15°C° 0 mm 1 m/s 590 mmHg 42%
    23:00 +14°C° 0 mm 0 m/s 590 mmHg 44%

    23 Junho, Sábado

    Tempo Temperatura Precipitação Vento Pressão Humidade
    00:00 +13°C° 0 mm 0 m/s 590 mmHg 46%
    01:00 +13°C° 0,1 mm 0 m/s 589 mmHg 47%
    02:00 +12°C° 0,1 mm 0 m/s 589 mmHg 49%
    03:00 +12°C° 0,1 mm 0 m/s 589 mmHg 50%
    04:00 +13°C° 0 mm 1 m/s 589 mmHg 47%
    05:00 +14°C° 0 mm 1 m/s 590 mmHg 45%
    06:00 +15°C° 0 mm 1 m/s 590 mmHg 42%
    07:00 +16°C° 0 mm 1 m/s 590 mmHg 39%
    08:00 +18°C° 0 mm 1 m/s 591 mmHg 36%
    09:00 +19°C° 0 mm 1 m/s 591 mmHg 33%
    10:00 +20°C° 0,1 mm 1 m/s 591 mmHg 30%
    11:00 +19°C° 0,1 mm 2 m/s 591 mmHg 28%
    12:00 +20°C° 0,1 mm 2 m/s 591 mmHg 26%
    13:00 +21°C° 0 mm 2 m/s 591 mmHg 25%
    14:00 +21°C° 0 mm 2 m/s 591 mmHg 24%
    15:00 +21°C° 0 mm 3 m/s 591 mmHg 24%
    16:00 +21°C° 0,1 mm 3 m/s 590 mmHg 25%
    17:00 +21°C° 0,1 mm 2 m/s 590 mmHg 26%
    18:00 +20°C° 0,1 mm 2 m/s 590 mmHg 27%
    19:00 +19°C° 0 mm 2 m/s 590 mmHg 31%
    20:00 +19°C° 0 mm 1 m/s 589 mmHg 35%
    21:00 +18°C° 0 mm 1 m/s 589 mmHg 39%
    22:00 +16°C° 0 mm 1 m/s 589 mmHg 41%
    23:00 +15°C° 0 mm 1 m/s 589 mmHg 43%
    Mostrar mais